Погода в Лиде

Хотите узнать прогноз погоды в Лиде? Тогда Вам сюда: Погода в Лиде

Поиск расширенной информации на нашем сайте:

Полезная информация:

Новости сайта



02.01.2020
Опубликован Долгосрочный прогноз погоды по городам России и ближнего зарубежья на январь 2020 года.
Карты: Прогноз на январь и февраль 2020 года, Сравнение прогнозируемой аномалии приземной температуры воздуха на январь 2020 года по разным моделям.




Погода в Лиде - сегодня

Время (UTC), дата Ветер
(°,м/с) 
Видим.   Явления Облачность Т
(°С)
Тd
(°С)
f(%) Тe
(°С)
Pmin
(гПа)
dP
(гПа)
Po
(мм)
O2
(г/м3)
Тmin Tmax R s Состояние
почвы
12 22.10.21 190 (Ю) 6-11{13}  35000 м    9/9 600 м 
[Sc]
+8.6 +1 59 +7  1004.3  0.8  739  289           
15 22.10.21 170 (Ю) 5-10{13}  35000 м    9/9 600 м 
[Sc]
+8.4 +2 64 +7  1004.3  739  289           
18 22.10.21 190 (Ю) 6-10{17}  30000 м  слаб. ливневой дождь  10/6 300 м кучево-дожд., средняя 
[Cb calv|Ac As]
+7.6 +2.3 69 +6  1003.8  -0.6  739  289    +8.7  0.0     
21 22.10.21 190 (Ю) 6-12{15}  21000 м  слаб. ливневой дождь  10/8 600 м кучево-дожд., средняя 
[Cb calv|Ac As]
+6.9 +2.8 75 +5  1002.7  -1.1  738  290           
00 23.10.21 200 (Ю) 5{14}  35000 м  {ливн. осадки}  3/0 средняя 
[Ac trans]
+5.6 +2.6 81 +4  1004.2  1.4  739  291           
03 23.10.21 200 (Ю) 5{12}  35000 м    9/5 300 м средняя 
[St|Ac trans]
+5.2 +2 80 +3  1006.2  1.9  740  292      0.3     
06 23.10.21 200 (Ю) 4{10}  35000 м    9/9 600 м 
[Sc]
+5.2 +2 80 +4  1008.1  1.9  742  293  +4.9    0.3     
09 23.10.21 190 (Ю) 5{11}  35000 м  {дождь}  9/9 600 м 
[Sc]
+6.6 +2.7 76 +5  1010.7  2.6  744  292           
12 23.10.21 200 (Ю) 6-10{11}  35000 м  {дождь}  9/9 600 м 
[Sc]
+8.2 +3.3 71 +6  1012.5  1.9  745  291           
15 23.10.21 200 (Ю) 3{10}  35000 м    8/5 600 м средняя 
[Sc|Ac trans]
+7.5 +3.5 76 +7  1014.3  1.7  746  292           
18 23.10.21 210 (ЮЗ) 35000 м    9/9 600 м 
[Sc]
+5.8 +3.8 87 +4  1017.2  2.8  749  295    +8.7  0.0     
21 23.10.21 250 (З) 35000 м  {ливн. осадки}  8/0 средняя 
[Ac trans]
+5.4 +2.2 80 +4  1020.1  2.8  751  296           
00 24.10.21 240 (ЮЗ) 4{10}  35000 м  {ливн. осадки}  9/0 средняя 
[Ac As]
+4.5 +1.7 82 +3  1022.6  2.4  752  298           
03 24.10.21 260 (З) 35000 м    9/0 средняя 
[Ac trans]
+3.2 +0.9 85 +1  1025.2  2.4  754  300           
06 24.10.21 260 (З) 35000 м    8/0 средняя 
[Ac trans]
+2.5 +0.7 88 +1  1027.8  2.5  756  302  +2.3    0.0     
09 24.10.21 240 (ЮЗ) 35000 м    6/0 средняя, верхняя 
[Ac trans|Ci fib]
+3.6 +0.5 80 +2  1030.1  2.3  758  301           
12 24.10.21 260 (З) 35000 м    4/0 средняя, верхняя 
[Ac trans|Ci fib]
+6.2 -0.3 63 +6  1030.7  0.8  758  299           
15 24.10.21 тихо ()   35000 м    10/0 средняя 
[As op]
+6 -0.3 64 +6  1031.1  0.4  759  299           
18 24.10.21 тихо ()   27000 м    4/0 средняя 
[Ac trans]
+3.3 +0.9 84 +3  1031.8  0.5  759  302    +7       
21 24.10.21 тихо ()   12000 м    1/0 
-0.3 -1.1 94 -0  1032.2  0.1  759  306           
00 25.10.21 тихо ()   35000 м    ясно 
-0.5 -1.1 96 -1  1032.2  759  307           
03 25.10.21 100 (В) 21000 м    1/0 
-1.3 -1.7 97 -1  1032.1  -0.2  759  308           
06 25.10.21 120 (ЮВ) 16000 м    ясно 
-1.1 -1.5 97 -2  1031.5  -0.5  759  307  -1.5         
09 25.10.21 140 (ЮВ) 35000 м    ясно 
+6.1 +2 75 +5  1030.5  -0.5  758  299           
12 25.10.21 140 (ЮВ) 35000 м    3/0 верхняя 
[Ci fib]
+9 +0.7 56 +8  1028.7  -1.5  757  295           
Время (UTC), дата Ветер
(°,м/с) 
Видим.   Явления Облачность Т
(°С)
Тd
(°С)
f(%) Тe
(°С)
Pmin
(гПа)
dP
(гПа)
Po
(мм)
O2
(г/м3)
Тmin Tmax R s Состояние
почвы

Для получения пояснительной информации подведите курсор к названию столбца.

ПОГОДА в Лиде - архив

Всё, что Вы хотите узнать о погоде в Лиде - удобно и подробно!

Выберите нужную дату (начиная с 1 января 2019* года) и нажмите кнопку "Найти".
Будут отображены архивные сводки погоды по пункту Лида, начиная с указанной даты.


Отображать данные в формате CSV (для использования в таблицах Excel)


Внимание! Наш архив погоды предназначен исключительно для личного некоммерческого использования в познавательных целях. Если Вам необходимы официальные справки о состоянии погоды (для производственных, юридических, коммерческих и т.п. целей), обращайтесь в органы Росгидромета.

*Примечание: данная дата относится к архиву по метеостанциям СССР (Россия, СНГ, Балтия).
Архив по метеостанциям Зарубежной Европы и Азии (кроме Китая) хранится 10 дней, по другим регионам земного шара (Китай, Африка, Америка, Австралия, Океания) - 1 день.

Лида - район местоположения метеостанции


Название, широта, долгота, высота метеостанции:
Лида 53.9°ш. 25.3°д. 157 м над ур. моря [Беларусь]

Дополнительная информация

В oтличие oт бoльшинства пoгoдных сайтoв мы публикуем пoдрoбную метеoинфoрмацию в детальнoм прoфессиoнальнoм фoрмате.

Характеристики температуры и влажнoсти вoздуха измеряются на высoте 2 м в тени вдали oт зданий и деревьев.
Скoрoсть ветра измеряется на высoте 10 м (на урoвне рoста челoвека скoрoсть ветра ниже в 1.5-2 раза). Если метеoстанция нахoдится в гoрoде или в лесу, тo скoрoсть ветра занижена на 2-4 м/с пo сравнению с oткрытым местoм. Скoрoсть ветра над акватoриями крупных рек и oзёр, а также на вершинах хoлмoв на 2-5 м/с выше, чем в oбычных услoвиях.
Атмoсфернoе давление в разных тoчках местнoсти мoжет значительнo oтличаться oт давления на метеoстанции, в зависимoсти oт услoвий рельефа (при пoдъёме на 10 м давление пoнижается примернo на 1 мм рт.ст.).